www.pogodaiklimat.ru

Погода и климат >> Архив погоды >> Россия >> Ненецкий АО >> Индига


АРХИВ ПОГОДЫ в Индиге

Время (UTC), дата Ветер
(напр.,м/с)
 
Видим.   Явления Облачность Т
(С)
Тd
(С)
f
(%)
Тe
(С)
Тes
(С)
Комфортность P
(гПа)
Po
(гПа)
Тmin
(С)
Tmax
(С)
R
(мм)
R24
(мм)
S
(см)
09 12.03 СЗ 4 10 км {ливн. осадки} 10/10 600 м
[Sc]
-5.3 -6.0 95 -12 -12 996.1 995.6
12 12.03 С 6 10 км {ливн. осадки} 9/9 600 м
[Sc]
-6.3 -7.5 91 -14 -14 997.1 996.6
15 12.03 СЗ 4 20 км 3/3 600 м
[Sc Ac trans]
-8.8 -9.9 92 -16 -16 998.2 997.7 -1.0 0.4
18 12.03 З 4 20 км 3/3 600 м
[Sc]
-10.1 -10.8 95 -17 -17 998.7 998.2
21 12.03 З 5 20 км 3/3 600 м
[Sc]
-12.8 -14.1 90 -21 -21 998.9 998.4
00 13.03 З 9-10
{10}
10 км позёмок 10/10 600 м
[Sc]
-8.4 -9.0 95 -18 -18 998.3 997.8
03 13.03 З 7
{11}
10 км позёмок 5/0
[Ac trans Ci fib]
-10.8 -11.4 95 -20 -20 999.5 999.0 -16.2 32
06 13.03 З 6 20 км позёмок 4/3 600 м
[Sc Ci fib]
-8.2 -8.8 95 -17 -16 1000.6 1000.1
09 13.03 З 6 20 км позёмок 3/1 600 м
[Sc Ac trans]
-7.6 -8.1 96 -16 -15 1001.9 1001.4
12 13.03 З 5 20 км {метель} 3/3 300 м
[Cb cap Ac trans]
-6.6 -7.5 93 -14 -14 1003.6 1003.1
15 13.03 СЗ 6 10 км 9/9 600 м
[Sc]
-4.7 -5.8 92 -13 -13 1005.3 1004.8 -4.5
18 13.03 СЗ 4 10 км в посл. час ливневой снег 9/9 300 м
[Cb cap]
-5.3 -5.7 97 -12 -12 1006.9 1006.4
21 13.03 СЗ 4 10 км 8/8 600 м
[Sc]
-8.2 -8.8 95 -15 -15 1008.7 1008.2
00 14.03 З 4 10 км 6/4 600 м
[Sc Ac trans]
-8.6 -9.3 95 -16 -16 1010.4 1009.9
03 14.03 ЮЗ 4 10 км 6/3 600 м
[Sc Ac trans Ci sp]
-12.5 -13.3 94 -20 -20 1011.9 1011.4 -14.4 0.0 32
06 14.03 ЮЗ 7 20 км 6/0
[Ac trans Cs]
-10.5 -11.8 90 -20 -19 1012.6 1012.1
09 14.03 ЮЗ 8
{10}
2000 м позёмок 8/3 300 м
[St Cs]
-9.9 -11.2 90 -20 -19 1013.1 1012.6
12 14.03 ЮЗ 8 20 км позёмок 3/0
[Ci sp]
-9.2 -10.2 92 -19 -19 1013.2 1012.7
15 14.03 ЮЗ 8-10
{11}
10 км позёмок 3/0
[Ci fib]
-9.1 -10.2 92 -19 -19 1013.0 1012.5 -9.1
18 14.03 Ю 4
{10}
10 км {метель} ясно -10.5 -11.7 91 -18 -18 1013.2 1012.7
21 14.03 ЮЗ 9-10
{12}
10 км позёмок ясно -10.1 -12.1 85 -20 -20 1012.8 1012.3
00 15.03 Ю 6
{10}
20 км {метель} ясно -12.6 -14.6 85 -22 -22 1012.6 1012.1
03 15.03 Ю 6 20 км ясно -13.1 -15.1 85 -22 -22 1012.6 1012.1 -13.1 32
06 15.03 ЮВ 5 20 км {метель} 3/3 600 м
[Sc]
-11.1 -13.1 85 -19 -18 1012.1 1011.6 -14.1
09 15.03 Ю 6
{11}
20 км {метель} 9/9 600 м
[Sc]
-6.6 -9.0 83 -15 -15 1011.7 1011.2
12 15.03 ЮВ 7 20 км {метель} 3/0
[Ci fib]
-6.2 -8.5 84 -15 -14 1011.1 1010.5
15 15.03 Ю 6 20 км 1/0
[Ac trans]
-8.8 -10.9 85 -17 -17 1009.9 1009.4 -5.1
18 15.03 Ю 13-15
{17}
10 км сильный позёмок 9/9 600 м
[Sc]
-5.8 -7.8 86 -17 -17 1008.4 1007.9
21 15.03 Ю 8
{16}
20 км позёмок 9/9 600 м
[Sc]
-4.3 -6.8 83 -13 -13 1008.0 1007.5
00 16.03 В 5 10 км {метель} 10/10 600 м
[Sc]
-5.2 -7.1 86 -12 -12 1007.4 1006.9
03 16.03 Ю 6 4000 м дымка 10/10 300 м
[St]
-4.4 -5.7 91 -12 -12 1006.9 1006.4 -8.9 32
06 16.03 Ю 6 10 км 10/10 300 м
[St]
-4.1 -5.5 90 -12 -12 1006.4 1005.9
09 16.03 ЮЗ 9-11
{11}
10 км позёмок 9/8 300 м
[Cb cap Ac trans]
-2.1 -3.3 91 -11 -11 1006.3 1005.8
12 16.03 ЮЗ 9-12
{13}
10 км позёмок 9/9 600 м
[Sc]
-0.9 -2.0 92 -9 -9 1006.8 1006.3
15 16.03 ЮЗ 9-12
{13}
10 км позёмок 10/10 600 м
[Sc]
-0.7 -1.8 92 -9 -9 1007.7 1007.2 -0.7
18 16.03 ЮЗ 9-12
{12}
10 км позёмок 10/10 300 м
[St]
-0.1 -1.4 91 -8 -8 1008.3 1007.8
21 16.03 ЮЗ 10-12
{13}
10 км позёмок 10/10 300 м
[St]
-0.2 -1.7 90 -9 -9 1009.4 1008.9
00 17.03 ЮЗ 8-12
{12}
10 км позёмок 10/10 300 м
[St]
-0.2 -1.9 88 -8 -8 1010.3 1009.8
03 17.03 ЮЗ 9-10
{12}
10 км позёмок 8/5 600 м
[Sc Ac trans]
-1.5 -3.5 86 -10 -10 1010.9 1010.4 -1.5 32
06 17.03 ЮЗ 9-11
{12}
20 км позёмок 6/3 600 м
[Sc Cs]
-4.7 -6.8 85 -14 -14 1011.7 1011.2 -4.8
09 17.03 Ю 9-10
{11}
20 км позёмок 9/0
[Cs]
-3.0 -5.4 83 -12 -11 1012.2 1011.7
12 17.03 ЮЗ 8
{10}
20 км позёмок 6/1 600 м
[Sc Ac trans Cc]
-2.1 -5.6 77 -10 -10 1012.0 1011.5
15 17.03 ЮЗ 8
{10}
10 км {метель} 9/9 600 м
[Sc]
-2.5 -5.8 78 -11 -11 1012.7 1012.2 -1.4
18 17.03 ЮЗ 8-10
{10}
10 км {метель} 8/8 600 м
[Sc]
-4.8 -7.0 85 -14 -14 1012.7 1012.2
21 17.03 ЮЗ 7
{11}
4000 м дымка 10/10 300 м
[St]
-2.9 -4.2 91 -11 -11 1013.0 1012.5
00 18.03 ЮЗ 7
{10}
10 км 10/10 600 м
[Sc]
-2.1 -3.7 89 -10 -10 1013.1 1012.6
03 18.03 ЮЗ 9-10
{11}
10 км позёмок 10/10 600 м
[Sc]
-1.8 -3.9 86 -10 -10 1013.5 1013.0 -5.7 32
06 18.03 ЮЗ 8-10
{12}
10 км позёмок 10/10 600 м
[Sc]
-1.7 -3.2 89 -10 -10 1013.9 1013.4
09 18.03 ЮЗ 9-11
{12}
10 км позёмок 9/9 600 м
[Sc]
-0.9 -2.5 89 -9 -9 1014.6 1014.1
12 18.03 ЮЗ 7
{11}
20 км {метель} 9/8 600 м
[Sc Ac trans]
-0.2 -2.0 88 -7 -7 1014.9 1014.4
15 18.03 Ю 4 10 км 10/10 600 м
[Sc]
-0.4 -1.7 91 -6 -6 1014.3 1013.8 -0.2
18 18.03 Ю 10-12
{12}
10 км позёмок 9/9 600 м
[Sc]
+0.3 -0.6 94 -8 -8 1013.5 1013.0
21 18.03 Ю 8-10
{12}
10 км {метель} 10/10 600 м
[Sc]
+0.5 -1.5 86 -7 -7 1012.5 1012.0
00 19.03 Ю 8
{10}
10 км {метель} 10/10 600 м
[Sc]
0.0 -1.8 88 -8 -8 1010.7 1010.2
03 19.03 Ю 8-10
{12}
1000 м снег 10/10 300 м
[Frnb Ns]
-0.4 -1.1 95 -8 -8 1008.5 1008.0 -1.5 0.4 32
06 19.03 Ю 7
{11}
1000 м слаб. снег 10/10 300 м
[Frnb Ns]
-0.3 -0.3 100 -8 -8 1006.6 1006.1

 

Местоположение метеостанции Индига (Ненецкий АО, Россия): широта 67.68 долгота 48.68 высота над уровнем моря 4 м.

В архиве по умолчанию представлена погода в Индиге за последнюю неделю. Архивные данные за месяц целиком и за предыдущие месяцы, начиная с января 2011 года, Вы можете получить, выбрав интересующий диапазон дат из раскрывающегося списка и нажав кнопку "Ввод!".


*Определитесь, кто Вы:
робот инопланетянин человек

Внимание! Время в таблицах - всемирное. Для получения местного времени необходимо прибавить поправку, которая равна 3 ч.

Смотрите также архив погоды в соседних городах и на ближайших метеорологических станциях:

Погода на Мысе Микулкин (Ненецкий АО, Россия) (86 км)
Погода в Нижней Пеше (Ненецкий АО, Россия) (111 км)
Погода в Коткино (Ненецкий АО, Россия) (127 км)
Погода в Бугрино (Ненецкий АО, Россия) (127 км)
Погода в Сенгейском Шаре (Ненецкий АО, Россия) (139 км)
Погода в Нарьян-Маре (Ненецкий АО, Россия) (184 км)
Погода в Шойне (Ненецкий АО, Россия) (191 км)
Погода на Колгуевом Острове (Ненецкий АО, Россия) (206 км)
Погода в Неси (Ненецкий АО, Россия) (210 км)
Погода в Окуневом Носу (Коми, Россия) (233 км)

Пояснения к столбцам:

Ветер - указаны скорость ветра в м/с - средняя за 10 мин, порывы в срок и между сроками (в фигурных скобках) и направление, откуда дует ветер: С - северный, СВ - северо-восточный, В - восточный, ЮВ - юго-восточный, Ю - южный, ЮЗ - юго-западный, З - западный, СЗ - северо-западный.
Видимость - горизонтальная дальность видимости в метрах или километрах. При видимости от 1 до 10 км при отсутствии осадков обычно наблюдается дымка, при ухудшении видимости до 1 км и менее - туман. В сухую погоду видимость может ухудшаться дымом, пылью или мглою.
Явления - указаны атмосферные явления, наблюдавшиеся в срок или в последний час перед сроком; фигурными скобками обозначены явления, наблюдавшиеся между сроками (за 1-3 часа до срока); квадратными скобками обозначены град или гололедные отложения с указанием их диаметра в мм.
Облачность - указаны через наклонную черту общая и нижняя облачность в баллах и высота нижней границы облаков в метрах; квадратными скобками обозначены формы облаков: Ci - перистые, Cs - перисто-слоистые, Cc - перисто-кучевые, Ac - высококучевые, As - высокослоистые, Sc - слоисто-кучевые, Ns - слоисто-дождевые, Cu - кучевые, Cb - кучево-дождевые. Подробнее классификацию облаков см. в Атласе облаков (PDF).
T - Температура воздуха - температура, измеренная на высоте 2 м над землей.
Td - Температура точки росы - температура, при понижении до которой содержащийся в воздухе водяной пар достигнет насыщения.
f - Относительная влажность воздуха - влажноcть воздуха, измеренная на высоте 2 м над землей.
Te - Эффективная температура - температура, которую ощущает одетый по сезону человек в тени. Характеристика душности погоды. При расчете учитывается влияние влажности воздуха и скорости ветра на теплоощущения человека.
Tes - Эффективная температура на солнце - температура, которую ощущает человек, с поправкой на солнечный нагрев. Характеристика знойности погоды. Зависит от высоты солнца над горизонтом, облачности и скорости ветра. Ночью, в пасмурную погоду, а также при ветре 12 м/с и более поправка равна нулю.
P - Атмосферное давление - приведенное к уровню моря атмосферное давление.
Po - Атмосферное давление - измеренное на уровне метеостанции атмосферное давление.
Tmin - Минимальная температура - минимум температуры воздуха на высоте 2 м над землей.
Tmax - Максимальная температура - максимум температуры воздуха на высоте 2 м над землей.
R - Количество осадков - Количество выпавших осадков за период времени, мм. При наведении курсора мыши на число - период времени, за который выпало указанное количество осадков.
R24 - Количество осадков - Количество выпавших осадков за 24 часа, мм.
S - Снежный покров - Высота снежного покрова, см. При наведении курсора мыши на число - состояние снежного покрова и степень покрытия местности в баллах.